Reno, NV

3:50 AM PDT on October 17, 2019 (GMT -0700)
Reno-Tahoe International

Weather History for KRNO - August, 2019

Change the Weather History Date:

Monday, August 5, 2019

  Actual Average Record
Temperature  
Mean Temperature 79 °F 75 °F  
Max Temperature 98 °F 93 °F 102 °F (1990)
Min Temperature 60 °F 58 °F 38 °F (1950)
Degree Days  
Heating Degree Days 0 0  
Month to date heating degree days 0 0  
Since 1 June heating degree days 15 61  
Since 1 July heating degree days 0 5  
Cooling Degree Days 14 10  
Month to date cooling degree days 67 53  
Year to date cooling degree days 658 540  
Since 1 June cooling degree days 644 503  
Growing Degree Days 29 (Base 50)    
Moisture  
Dew Point 36 °F    
Average Humidity 24    
Maximum Humidity 42    
Minimum Humidity 9    
Precipitation  
Precipitation 0.00 in 0.01 in 1.39 in (1901)
Month to date precipitation 0.00 0.05  
Year to date precipitation 8.76 4.51  
Snow  
Snow 0.00 in 0.00 in 0.00 in ()
Month to date snowfall 0.0 0.0  
Since 1 June snowfall 0.0 T  
Since 1 July snowfall 0.0 0.0  
Snow Depth 0.00 in    
Sea Level Pressure  
Sea Level Pressure 29.95 in    
Wind  
Wind Speed 5 mph ()    
Max Wind Speed 21 mph    
Max Gust Speed 28 mph    
Visibility 10.0 miles    
Events      
T = Trace of Precipitation, MM = Missing Value Source: Averaged Metar Reports

Daily Weather History Graph

Daily Weather History Graph

Search for Another Location

Airport or City:

Astronomy

Aug. 05, 2019 Rise Set
Actual Time 6:02 AM PDT 8:07 PM PDT
Civil Twilight 5:32 AM PDT 8:36 PM PDT
Nautical Twilight 4:56 AM PDT 9:13 PM PDT
Astronomical Twilight 4:16 AM PDT 9:52 PM PDT
Moon 11:22 AM PDT (8/5) 11:23 PM PDT (8/5)
Length of Visible Light 15h 04m
Length of Day
14h 05m
Waxing Crescent, 29% of the Moon is Illuminated
Aug 5
Waxing Crescent
Aug 7
First Quarter
Aug 15
Full
Aug 23
Last Quarter
Aug 30
New

Hourly Weather History & Observations

Time (PDT) Temp. Dew Point Humidity Pressure Visibility Wind Dir Wind Speed Gust Speed Precip Events Conditions
12:55 AM 72.0 °F 37.0 °F 28% 29.96 in 10.0 mi West 4.6 mph - N/A   Clear
1:55 AM 70.0 °F 37.0 °F 30% 29.96 in 10.0 mi West 5.8 mph - N/A   Clear
2:55 AM 64.9 °F 39.0 °F 39% 29.97 in 10.0 mi SSE 3.5 mph - N/A   Clear
3:55 AM 64.9 °F 37.0 °F 36% 29.97 in 10.0 mi Calm Calm - N/A   Clear
4:55 AM 61.0 °F 37.9 °F 42% 29.99 in 10.0 mi SSE 3.5 mph - N/A   Partly Cloudy
5:55 AM 61.0 °F 37.9 °F 42% 29.99 in 10.0 mi SSW 3.5 mph - N/A   Scattered Clouds
6:55 AM 64.0 °F 37.0 °F 37% 30.00 in 10.0 mi West 5.8 mph - N/A   Scattered Clouds
7:55 AM 68.0 °F 37.9 °F 33% 30.01 in 10.0 mi West 5.8 mph - N/A   Partly Cloudy
8:55 AM 73.0 °F 37.9 °F 28% 30.01 in 10.0 mi Calm Calm - N/A   Partly Cloudy
9:55 AM 78.1 °F 37.0 °F 23% 30.00 in 10.0 mi Calm Calm - N/A   Scattered Clouds
10:55 AM 84.0 °F 33.1 °F 16% 29.98 in 10.0 mi Variable 4.6 mph - N/A   Mostly Cloudy
11:55 AM 87.1 °F 30.0 °F 13% 29.96 in 10.0 mi NNE 3.5 mph - N/A   Mostly Cloudy
12:55 PM 93.0 °F 32.0 °F 12% 29.93 in 10.0 mi South 5.8 mph - N/A   Mostly Cloudy
1:55 PM 95.0 °F 30.9 °F 10% 29.91 in 10.0 mi NW 10.4 mph 19.6 mph N/A   Mostly Cloudy
2:55 PM 93.9 °F 30.9 °F 11% 29.90 in 10.0 mi SE 4.6 mph - N/A   Overcast
3:55 PM 96.1 °F 28.9 °F 9% 29.88 in 10.0 mi WNW 15.0 mph - N/A   Overcast
4:55 PM 93.0 °F 30.9 °F 11% 29.88 in 10.0 mi NW 10.4 mph - N/A   Overcast
5:55 PM 91.9 °F 35.1 °F 13% 29.88 in 10.0 mi WNW 15.0 mph 21.9 mph N/A   Mostly Cloudy
6:55 PM 88.0 °F 36.0 °F 16% 29.88 in 10.0 mi NW 12.7 mph 21.9 mph N/A   Mostly Cloudy
7:55 PM 84.9 °F 39.9 °F 20% 29.90 in 10.0 mi NNW 10.4 mph - N/A   Scattered Clouds
8:55 PM 81.0 °F 42.1 °F 25% 29.92 in 10.0 mi NNE 11.5 mph - N/A   Scattered Clouds
9:55 PM 78.1 °F 43.0 °F 29% 29.94 in 10.0 mi North 12.7 mph - N/A   Mostly Cloudy
10:55 PM 78.1 °F 43.0 °F 29% 29.93 in 10.0 mi NW 10.4 mph - N/A   Mostly Cloudy
11:55 PM 75.0 °F 43.0 °F 32% 29.93 in 10.0 mi Calm Calm - N/A   Mostly Cloudy